TimeCDT,TemperatureF,Dew PointF,Humidity,Sea Level PressureIn,VisibilityMPH,Wind Direction,Wind SpeedMPH,Gust SpeedMPH,PrecipitationIn,Events,Conditions,WindDirDegrees,DateUTC
12:54 AM,48.9,33.1,54,29.93,10.0,ESE,16.1,23.0,N/A,,Overcast,110,2012-11-03 05:54:00
1:54 AM,48.0,33.1,56,29.93,10.0,ESE,13.8,20.7,N/A,,Partly Cloudy,110,2012-11-03 06:54:00
2:54 AM,46.9,34.0,61,29.93,10.0,ESE,9.2,-,N/A,,Clear,110,2012-11-03 07:54:00
3:54 AM,46.0,34.0,63,29.93,10.0,East,10.4,-,N/A,,Clear,90,2012-11-03 08:54:00
4:54 AM,46.0,34.0,63,29.94,10.0,East,11.5,-,N/A,,Clear,90,2012-11-03 09:54:00
5:54 AM,45.0,34.0,65,29.96,10.0,East,11.5,-,N/A,,Clear,80,2012-11-03 10:54:00
6:54 AM,44.1,34.0,68,29.98,10.0,ENE,8.1,-,N/A,,Clear,60,2012-11-03 11:54:00
7:54 AM,43.0,35.1,74,30.00,10.0,NNE,6.9,-,N/A,,Clear,30,2012-11-03 12:54:00
8:54 AM,46.0,36.0,68,30.04,10.0,NNE,9.2,-,N/A,,Clear,20,2012-11-03 13:54:00
9:54 AM,48.0,36.0,63,30.05,10.0,NNE,11.5,-,N/A,,Clear,30,2012-11-03 14:54:00
10:54 AM,48.9,35.1,59,30.07,10.0,North,12.7,-,N/A,,Partly Cloudy,360,2012-11-03 15:54:00
11:54 AM,51.1,36.0,56,30.09,10.0,NNE,9.2,-,N/A,,Clear,20,2012-11-03 16:54:00
12:54 PM,51.1,37.0,59,30.10,10.0,North,11.5,-,N/A,,Overcast,10,2012-11-03 17:54:00
1:54 PM,53.1,37.9,57,30.10,10.0,North,15.0,21.9,N/A,,Clear,10,2012-11-03 18:54:00
2:54 PM,52.0,37.9,59,30.11,10.0,North,11.5,-,N/A,,Mostly Cloudy,350,2012-11-03 19:54:00
3:54 PM,54.0,37.9,55,30.13,10.0,NNE,10.4,-,N/A,,Clear,20,2012-11-03 20:54:00
4:54 PM,53.1,37.9,57,30.14,10.0,North,9.2,-,N/A,,Clear,10,2012-11-03 21:54:00
5:54 PM,48.9,37.9,66,30.15,10.0,North,6.9,-,N/A,,Clear,10,2012-11-03 22:54:00
6:54 PM,46.9,37.0,68,30.17,10.0,NNE,5.8,-,N/A,,Clear,30,2012-11-03 23:54:00
7:54 PM,46.0,37.0,71,30.18,10.0,NNE,3.5,-,N/A,,Clear,20,2012-11-04 00:54:00
8:54 PM,43.0,36.0,76,30.18,10.0,NE,3.5,-,N/A,,Clear,40,2012-11-04 01:54:00
9:54 PM,39.9,36.0,86,30.20,10.0,NNE,4.6,-,N/A,,Clear,20,2012-11-04 02:54:00
10:54 PM,39.0,36.0,89,30.21,10.0,NE,4.6,-,N/A,,Clear,50,2012-11-04 03:54:00
11:54 PM,39.0,34.0,82,30.21,10.0,East,5.8,-,N/A,,Clear,100,2012-11-04 04:54:00